Change the Weather History Date:

Wednesday, February 5, 2014

  Actual Average Record
Temperature  
Mean Temperature 4 °F 22 °F  
Max Temperature 11 °F 30 °F 54 °F (2015)
Min Temperature -3 °F 14 °F -3 °F (2014)
Degree Days  
Heating Degree Days 61 43  
Month to date heating degree days 265 217  
Since 1 July heating degree days 4845 5046  
Cooling Degree Days 0 0  
Month to date cooling degree days 0 0  
Year to date cooling degree days 0 0  
Moisture  
Dew Point -3 °F    
Average Humidity 76    
Maximum Humidity 88    
Minimum Humidity 63    
Precipitation  
Precipitation T in 0.02 in 0.06 in (2004)
Month to date precipitation T 0.08  
Year to date precipitation 0.03 0.62  
Sea Level Pressure  
Sea Level Pressure 30.16 in    
Wind  
Wind Speed 10 mph (ESE)    
Max Wind Speed 15 mph    
Max Gust Speed -    
Visibility 9 miles    
Events Snow    
T = Trace of Precipitation, MM = Missing Value Source: NWS Daily Summary

Daily Weather History Graph

Daily Weather History Graph

Search for Another Location

Airport or City:

Trip Planner

Search our weather history database for the weather conditions in past years. The results will help you decide how hot, cold, wet, or windy it might be!

Date:

Astronomy

Feb. 05, 2014 Rise Set
Actual Time 7:31 AM MST 5:45 PM MST
Civil Twilight 7:02 AM MST 6:14 PM MST
Nautical Twilight 6:29 AM MST 6:47 PM MST
Astronomical Twilight 5:57 AM MST 7:19 PM MST
Moon 10:43 AM MST (2/5) No Moon Set
Length of Visible Light 11h 12m
Length of Day
10h 14m
Waxing Crescent, 40% of the Moon is Illuminated
Feb 5
Waxing Crescent
Feb 6
First Quarter
Feb 14
Full
Feb 22
Last Quarter
Mar 1
New

Hourly Weather History & Observations

Time (MST) Temp. Windchill Dew Point Humidity Pressure Visibility Wind Dir Wind Speed Gust Speed Precip Events Conditions
12:53 AM 7.0 °F 0.1 °F 3.0 °F 84% 30.16 in 10.0 mi SSW 3.5 mph - N/A   Overcast
1:53 AM 7.0 °F 0.1 °F 3.9 °F 87% 30.18 in 10.0 mi SW 3.5 mph - N/A   Overcast
2:53 AM 5.0 °F -5.6 °F 1.0 °F 84% 30.19 in 10.0 mi ESE 5.8 mph - N/A   Overcast
3:53 AM 6.1 °F -4.3 °F 3.0 °F 87% 30.19 in 8.0 mi SSW 5.8 mph - 0.00 in Snow Light Snow
4:32 AM 8.1 °F 1.4 °F 3.9 °F 83% 29.96 in 3.0 mi South 3.5 mph - 0.00 in Snow Light Snow
4:39 AM 8.1 °F 1.4 °F 3.9 °F 83% 29.96 in 6.0 mi South 3.5 mph - 0.00 in Snow Light Snow
4:53 AM 6.1 °F -2.8 °F 1.9 °F 83% 30.18 in 4.0 mi SE 4.6 mph - 0.00 in Snow Light Snow
5:45 AM 1.9 °F -12.9 °F -2.9 °F 80% 29.95 in 2.5 mi East 9.2 mph - 0.00 in Snow Light Snow
5:53 AM 1.0 °F -14.9 °F -4.0 °F 79% 30.20 in 7.0 mi East 10.4 mph - 0.00 in   Mostly Cloudy
6:53 AM -0.9 °F -19.1 °F -7.1 °F 75% 30.23 in 10.0 mi East 12.7 mph - N/A   Overcast
7:53 AM -2.0 °F -21.2 °F -7.1 °F 79% 30.23 in 10.0 mi East 13.8 mph - N/A   Overcast
8:53 AM -0.9 °F -19.9 °F -7.1 °F 75% 30.27 in 10.0 mi East 13.8 mph - N/A   Overcast
9:53 AM -0.0 °F -18.7 °F -7.1 °F 72% 30.27 in 10.0 mi East 13.8 mph - N/A   Overcast
10:53 AM 1.9 °F -16.9 °F -6.0 °F 69% 30.25 in 10.0 mi East 15.0 mph - N/A   Overcast
11:53 AM 3.9 °F -14.3 °F -4.0 °F 70% 30.22 in 10.0 mi East 15.0 mph - N/A   Overcast
12:53 PM 6.1 °F -10.2 °F -2.0 °F 69% 30.18 in 10.0 mi East 12.7 mph - N/A   Overcast
1:53 PM 9.0 °F -5.9 °F -0.9 °F 64% 30.14 in 10.0 mi East 11.5 mph - N/A   Overcast
2:53 PM 10.0 °F -2.9 °F -0.0 °F 64% 30.12 in 10.0 mi East 9.2 mph - N/A   Overcast
3:53 PM 10.0 °F -5.2 °F -0.0 °F 64% 30.13 in 10.0 mi East 12.7 mph - N/A   Overcast
4:53 PM 7.0 °F -9.1 °F -0.9 °F 70% 30.14 in 10.0 mi East 12.7 mph - N/A   Overcast
5:53 PM 3.0 °F -14.1 °F -2.9 °F 76% 30.20 in 10.0 mi East 12.7 mph - N/A   Scattered Clouds
6:53 PM 1.0 °F -16.6 °F -5.1 °F 75% 30.24 in 10.0 mi East 12.7 mph - N/A   Mostly Cloudy
7:53 PM -0.0 °F -20.1 °F -6.0 °F 76% 30.24 in 10.0 mi East 16.1 mph - N/A   Overcast
8:53 PM -0.9 °F -19.1 °F -7.1 °F 75% 30.24 in 10.0 mi East 12.7 mph - N/A   Mostly Cloudy
9:53 PM -0.9 °F -19.9 °F -6.0 °F 79% 30.23 in 7.0 mi East 13.8 mph - 0.00 in Snow Light Snow
10:53 PM -2.0 °F -19.6 °F -7.1 °F 79% 30.22 in 10.0 mi East 11.5 mph - 0.00 in   Overcast
11:18 PM -2.0 °F -18.7 °F -7.1 °F 79% 29.90 in 7.0 mi East 10.4 mph - N/A   Overcast
11:53 PM -0.9 °F -17.4 °F -6.0 °F 79% 30.19 in 5.0 mi East 10.4 mph - 0.00 in Snow Light Snow